Location: Newark
(34.0131°N, 4.3314°W)
Time: 20:10:42
(UTC+00:00)

SR - All Passes

Search period start: 13 October 2019 00:00
Search period end: 23 October 2019 00:00
Orbit: 575 x 881 km, 66.7° (Epoch: 12 October)

Date Brightness Start Highest point End Pass type
(mag) Time Alt. Az. Time Alt. Az. Time Alt. Az.
13 Oct - 00:48:41 10° WSW 00:52:38 24° NW 00:56:53 10° N night (unlit)
13 Oct - 07:51:12 10° N 07:54:49 16° NE 07:58:26 10° E daylight
13 Oct - 09:31:37 10° NNW 09:37:34 79° WSW 09:43:24 10° SSE daylight
13 Oct - 22:18:37 10° SE 22:21:16 15° ESE 22:24:03 10° ENE night (unlit)
13 Oct - 23:58:05 10° SW 00:02:43 50° WNW 00:07:48 10° NNE night (unlit)
14 Oct - 08:42:05 10° NNW 08:47:53 53° ENE 08:53:35 10° SE daylight
14 Oct - 10:25:20 10° WNW 10:29:33 20° WSW 10:33:42 10° SSW daylight
14 Oct - 23:08:20 10° SSW 23:13:03 74° ESE 23:18:15 10° NNE night (unlit)
15 Oct - 00:53:21 10° WNW 00:55:49 14° NW 00:58:24 10° NNW night (unlit)
15 Oct - 07:52:57 10° N 07:57:59 28° NE 08:02:59 10° ESE daylight
15 Oct - 09:34:41 10° NW 09:40:13 42° WSW 09:45:38 10° S daylight
15 Oct - 22:19:26 10° S 22:23:37 32° ESE 22:28:09 10° NE night (unlit)
16 Oct - 00:01:37 10° WSW 00:05:41 26° NW 00:10:05 10° N night (unlit)
16 Oct - 07:04:27 10° NNE 07:07:52 16° NE 07:11:17 10° E daylight
16 Oct - 08:44:44 10° NNW 08:50:42 84° WSW 08:56:32 10° SSE daylight
16 Oct - 21:31:58 10° SE 21:34:24 14° ESE 21:36:56 10° ENE night (unlit)
16 Oct - 23:11:06 10° SW 23:15:47 53° WNW 23:20:57 10° NNE night (unlit)
17 Oct - 07:55:13 10° NNW 08:00:59 50° ENE 08:06:38 10° SE daylight
17 Oct - 09:38:19 10° WNW 09:42:41 22° WSW 09:46:59 10° SSW daylight
17 Oct - 22:21:26 10° SSW 22:26:08 69° ESE 22:31:21 10° NNE night (unlit)
18 Oct - 00:06:07 10° W 00:08:51 14° NW 00:11:43 10° NNW night (unlit)
18 Oct - 07:06:07 10° N 07:11:04 27° NE 07:15:58 10° ESE daylight
18 Oct - 08:47:44 10° NW 08:53:20 44° WSW 08:58:48 10° S daylight
18 Oct - 21:32:37 10° SSE 21:36:44 30° ESE 21:41:11 10° NE night (unlit)
18 Oct - 23:14:33 10° WSW 23:18:44 28° NW 23:23:16 10° N night (unlit)
19 Oct - 06:17:43 10° NNE 06:20:56 15° NE 06:24:08 10° E daylight
19 Oct - 07:57:50 10° NNW 08:03:49 89° SW 08:09:37 10° SSE daylight
19 Oct - 09:44:22 10° W 09:45:02 10° W 09:45:42 10° WSW daylight
19 Oct - 20:45:20 10° SE 20:47:32 13° ESE 20:49:47 10° ENE night (unlit)
19 Oct - 22:24:07 10° SW 22:28:51 58° WNW 22:34:05 10° NNE night (unlit)
20 Oct - 07:08:21 10° NNW 07:14:04 47° ENE 07:19:41 10° SE daylight
20 Oct - 08:51:18 10° NW 08:55:49 23° WSW 09:00:16 10° SSW daylight
20 Oct - 21:34:30 10° SSW 21:39:14 64° ESE 21:44:27 10° NNE night (unlit)
20 Oct - 23:18:54 10° W 23:21:53 16° NW 23:25:01 10° NNW night (unlit)
21 Oct - 06:19:18 10° N 06:24:09 25° NE 06:28:55 10° ESE daylight
21 Oct - 08:00:49 10° NW 08:06:28 47° WSW 08:11:58 10° S daylight
21 Oct - 20:45:47 10° SSE 20:49:51 28° ESE 20:54:14 10° NE night (unlit)
21 Oct - 22:27:29 10° WSW 22:31:47 30° NW 22:36:27 10° N night (unlit)
22 Oct - 05:31:00 10° NNE 05:33:58 14° NE 05:36:56 10° ENE visible
22 Oct - 07:10:56 10° NNW 07:16:55 87° ENE 07:22:43 10° SSE daylight
22 Oct - 08:56:36 10° W 08:58:10 11° W 08:59:44 10° WSW daylight
22 Oct - 19:58:47 10° SE 20:00:39 12° ESE 20:02:34 10° E night (unlit)
22 Oct - 21:37:08 10° SW 21:41:56 62° WNW 21:47:13 10° NNE night (unlit)
